timestamp,wind_dir_avg,wind_spd_avg,wind_spd_max_dir,wind_spd_gust,battery_voltage,lat,long
2022-05-24 00:04:00+00:00,242.0,7.03,242.0,7.59,12.41,47.59359,-54.27349
2022-05-24 00:14:00+00:00,231.0,6.85,237.0,8.11,12.41,47.59359,-54.27349
2022-05-24 00:24:00+00:00,245.0,6.5,243.0,6.82,12.41,47.59359,-54.27349
2022-05-24 00:34:00+00:00,240.0,6.96,242.0,7.23,12.41,47.59359,-54.27349
2022-05-24 00:44:00+00:00,247.0,5.55,248.0,5.89,12.41,47.59359,-54.27349
2022-05-24 00:54:00+00:00,193.0,2.78,227.0,3.92,12.41,47.59359,-54.27349
2022-05-24 01:04:00+00:00,235.0,5.48,237.0,5.8,12.41,47.59359,-54.27349
2022-05-24 01:14:01+00:00,237.0,5.88,238.0,6.04,12.41,47.59359,-54.27349
2022-05-24 01:24:01+00:00,205.0,2.19,240.0,4.05,12.41,47.59359,-54.27349
2022-05-24 01:34:01+00:00,252.0,3.6,255.0,4.74,12.41,47.59359,-54.27349
2022-05-24 01:44:01+00:00,182.0,0.67,183.0,0.74,12.41,47.59359,-54.27349
2022-05-24 01:54:01+00:00,32.0,1.73,59.0,4.5,12.41,47.59359,-54.27349
2022-05-24 02:04:01+00:00,22.0,8.64,30.0,10.29,12.41,47.59359,-54.27349
2022-05-24 02:14:00+00:00,46.0,14.05,51.0,16.76,12.33,47.59359,-54.27349
2022-05-24 02:24:00+00:00,44.0,12.64,50.0,16.79,12.33,47.59359,-54.27349
2022-05-24 02:34:00+00:00,45.0,10.07,55.0,13.69,12.33,47.59359,-54.27349
2022-05-24 02:44:00+00:00,50.0,11.55,56.0,15.71,12.33,47.59359,-54.27349
2022-05-24 02:54:00+00:00,49.0,10.05,58.0,14.06,12.33,47.59359,-54.27349
2022-05-24 03:04:00+00:00,48.0,10.25,55.0,12.44,12.33,47.59359,-54.27349
2022-05-24 03:14:00+00:00,43.0,8.67,42.0,9.74,12.41,47.59359,-54.27349
2022-05-24 03:24:00+00:00,51.0,8.69,51.0,9.62,12.41,47.59359,-54.27349
2022-05-24 03:34:00+00:00,48.0,10.45,58.0,13.77,12.41,47.59359,-54.27349
2022-05-24 03:44:00+00:00,57.0,11.33,68.0,14.67,12.41,47.59359,-54.27349
2022-05-24 03:54:00+00:00,47.0,9.74,42.0,11.23,12.41,47.59359,-54.27349
2022-05-24 04:04:00+00:00,40.0,9.3,41.0,10.42,12.41,47.59359,-54.27349
2022-05-24 04:14:01+00:00,35.0,9.85,35.0,11.89,12.33,47.59359,-54.27349
2022-05-24 04:24:01+00:00,39.0,10.8,40.0,11.57,12.33,47.59359,-54.27349
2022-05-24 04:34:01+00:00,40.0,11.15,37.0,12.29,12.33,47.59359,-54.27349
2022-05-24 04:44:01+00:00,32.0,10.05,39.0,11.26,12.33,47.59359,-54.27349
2022-05-24 04:54:01+00:00,36.0,9.78,32.0,11.45,12.33,47.59359,-54.27349
2022-05-24 05:04:01+00:00,37.0,9.46,35.0,11.04,12.33,47.59359,-54.27349
2022-05-24 05:14:01+00:00,42.0,9.72,42.0,10.59,11.93,47.59359,-54.27349
2022-05-24 05:24:01+00:00,43.0,9.94,39.0,11.49,11.93,47.59359,-54.27349
2022-05-24 05:34:01+00:00,40.0,9.95,39.0,11.1,11.93,47.59359,-54.27349
2022-05-24 05:44:01+00:00,49.0,9.03,49.0,10.12,11.93,47.59359,-54.27349
2022-05-24 05:54:01+00:00,46.0,10.05,56.0,13.82,11.93,47.59359,-54.27349
2022-05-24 06:04:01+00:00,43.0,9.49,40.0,10.37,11.93,47.59359,-54.27349
2022-05-24 06:14:01+00:00,42.0,10.16,43.0,11.52,11.61,47.59359,-54.27349
2022-05-24 06:24:01+00:00,48.0,11.2,55.0,14.02,11.61,47.59359,-54.27349
2022-05-24 06:34:01+00:00,43.0,11.39,50.0,13.51,11.61,47.59359,-54.27349
2022-05-24 06:44:01+00:00,41.0,10.15,40.0,11.38,11.61,47.59359,-54.27349
2022-05-24 06:54:01+00:00,34.0,9.83,36.0,11.12,11.61,47.59359,-54.27349
2022-05-24 07:04:01+00:00,40.0,9.49,39.0,10.37,11.61,47.59359,-54.27349
2022-05-24 07:14:01+00:00,43.0,11.06,43.0,11.76,12.17,47.59359,-54.27349
2022-05-24 07:24:01+00:00,42.0,11.27,40.0,12.28,12.17,47.59359,-54.27349
2022-05-24 07:34:01+00:00,39.0,10.74,39.0,12.09,12.17,47.59359,-54.27349
2022-05-24 07:44:01+00:00,40.0,10.28,46.0,11.45,12.17,47.59359,-54.27349
2022-05-24 07:54:01+00:00,36.0,11.23,35.0,12.74,12.17,47.59359,-54.27349
2022-05-24 08:04:01+00:00,37.0,11.39,38.0,12.53,12.17,47.59359,-54.27349
2022-05-24 08:14:00+00:00,32.0,11.33,29.0,12.33,12.17,47.59359,-54.27349
2022-05-24 08:24:00+00:00,38.0,10.55,33.0,11.72,12.17,47.59359,-54.27349
2022-05-24 08:34:00+00:00,36.0,11.16,37.0,12.36,12.17,47.59359,-54.27349
2022-05-24 08:44:00+00:00,36.0,11.79,33.0,13.05,12.17,47.59359,-54.27349
2022-05-24 08:54:00+00:00,32.0,11.65,27.0,13.58,12.17,47.59359,-54.27349
2022-05-24 09:04:00+00:00,33.0,11.94,28.0,13.0,12.17,47.59359,-54.27349
2022-05-24 09:14:01+00:00,36.0,11.51,34.0,12.71,12.41,47.59359,-54.27349
2022-05-24 09:24:01+00:00,35.0,10.73,37.0,11.74,12.41,47.59359,-54.27349
2022-05-24 09:34:01+00:00,40.0,10.07,39.0,11.49,12.41,47.59359,-54.27349
2022-05-24 09:44:01+00:00,30.0,10.8,31.0,12.1,12.41,47.59359,-54.27349
2022-05-24 09:54:01+00:00,30.0,10.61,28.0,12.49,12.41,47.59359,-54.27349
2022-05-24 10:04:01+00:00,37.0,11.82,37.0,13.13,12.41,47.59359,-54.27349
2022-05-24 10:14:00+00:00,38.0,12.05,37.0,13.41,13.13,47.59359,-54.27349
2022-05-24 10:24:00+00:00,37.0,11.51,40.0,12.43,13.13,47.59359,-54.27349
2022-05-24 10:34:00+00:00,37.0,10.92,38.0,12.33,13.13,47.59359,-54.27349
2022-05-24 10:44:00+00:00,34.0,12.33,35.0,14.11,13.13,47.59359,-54.27349
2022-05-24 10:54:00+00:00,36.0,11.02,35.0,12.21,13.13,47.59359,-54.27349
2022-05-24 11:04:00+00:00,38.0,11.2,40.0,12.82,13.13,47.59359,-54.27349
2022-05-24 11:14:00+00:00,37.0,10.7,37.0,12.07,13.6,47.59359,-54.27349
2022-05-24 11:24:00+00:00,42.0,10.69,37.0,12.05,13.6,47.59359,-54.27349
2022-05-24 11:34:00+00:00,46.0,11.12,45.0,12.5,13.6,47.59359,-54.27349
2022-05-24 11:44:00+00:00,46.0,9.57,44.0,11.32,13.6,47.59359,-54.27349
2022-05-24 11:54:00+00:00,49.0,9.43,51.0,11.2,13.6,47.59359,-54.27349
2022-05-24 12:04:00+00:00,48.0,9.39,43.0,10.93,13.6,47.59359,-54.27349
2022-05-24 12:14:00+00:00,45.0,11.08,56.0,13.63,14.16,47.59359,-54.27349
2022-05-24 12:24:00+00:00,48.0,15.28,47.0,17.0,14.16,47.59359,-54.27349
2022-05-24 12:34:00+00:00,49.0,15.14,48.0,16.64,14.16,47.59359,-54.27349
2022-05-24 12:44:00+00:00,52.0,13.14,52.0,15.27,14.16,47.59359,-54.27349
2022-05-24 12:54:00+00:00,55.0,13.73,57.0,15.8,14.16,47.59359,-54.27349
2022-05-24 13:04:00+00:00,51.0,13.41,55.0,16.28,14.16,47.59359,-54.27349
2022-05-24 13:14:01+00:00,50.0,13.02,57.0,16.02,14.32,47.59359,-54.27349
2022-05-24 13:24:01+00:00,49.0,14.76,50.0,16.88,14.32,47.59359,-54.27349
2022-05-24 13:34:01+00:00,51.0,11.14,58.0,15.57,14.32,47.59359,-54.27349
2022-05-24 13:44:01+00:00,53.0,13.1,56.0,15.53,14.32,47.59359,-54.27349
2022-05-24 13:54:01+00:00,43.0,10.98,50.0,12.96,14.32,47.59359,-54.27349
2022-05-24 14:04:01+00:00,49.0,9.07,48.0,11.04,14.32,47.59359,-54.27349
2022-05-24 15:14:01+00:00,41.0,11.46,52.0,14.89,13.92,47.59359,-54.27349
2022-05-24 15:24:01+00:00,46.0,10.64,59.0,15.32,13.92,47.59359,-54.27349
2022-05-24 15:34:01+00:00,55.0,10.75,63.0,14.46,13.92,47.59359,-54.27349
2022-05-24 15:44:01+00:00,56.0,8.86,64.0,11.15,13.92,47.59359,-54.27349
2022-05-24 15:54:01+00:00,62.0,7.74,59.0,8.93,13.92,47.59359,-54.27349
2022-05-24 16:04:01+00:00,52.0,9.4,56.0,13.02,13.92,47.59359,-54.27349
2022-05-24 16:14:01+00:00,62.0,9.11,70.0,13.53,14.4,47.59359,-54.27349
2022-05-24 16:24:01+00:00,60.0,8.84,66.0,13.33,14.4,47.59359,-54.27349
2022-05-24 16:34:01+00:00,61.0,8.44,71.0,12.39,14.4,47.59359,-54.27349
2022-05-24 16:44:01+00:00,57.0,8.71,58.0,9.57,14.4,47.59359,-54.27349
2022-05-24 16:54:01+00:00,64.0,10.56,68.0,13.9,14.4,47.59359,-54.27349
2022-05-24 17:04:01+00:00,62.0,9.34,64.0,13.89,14.4,47.59359,-54.27349
2022-05-24 17:14:00+00:00,63.0,8.68,71.0,13.15,14.08,47.59359,-54.27349
2022-05-24 17:24:00+00:00,62.0,8.24,57.0,9.32,14.08,47.59359,-54.27349
2022-05-24 17:34:00+00:00,64.0,7.51,59.0,8.55,14.08,47.59359,-54.27349
2022-05-24 17:44:00+00:00,62.0,8.63,72.0,11.37,14.08,47.59359,-54.27349
2022-05-24 17:54:00+00:00,64.0,8.9,72.0,13.55,14.08,47.59359,-54.27349
2022-05-24 18:04:00+00:00,67.0,9.67,72.0,13.68,14.08,47.59359,-54.27349
2022-05-24 18:14:00+00:00,67.0,9.53,72.0,13.54,13.76,47.59359,-54.27349
2022-05-24 18:24:00+00:00,69.0,9.37,72.0,13.82,13.76,47.59359,-54.27349
2022-05-24 18:34:00+00:00,64.0,8.3,74.0,12.49,13.76,47.59359,-54.27349
2022-05-24 18:44:00+00:00,62.0,7.77,55.0,8.84,13.76,47.59359,-54.27349
2022-05-24 18:54:00+00:00,62.0,7.42,66.0,8.45,13.76,47.59359,-54.27349
2022-05-24 19:04:00+00:00,67.0,7.95,64.0,8.58,13.76,47.59359,-54.27349
2022-05-24 19:14:01+00:00,64.0,8.13,64.0,8.96,13.76,47.59359,-54.27349
2022-05-24 19:24:01+00:00,65.0,7.97,70.0,10.1,13.76,47.59359,-54.27349
2022-05-24 19:34:01+00:00,68.0,5.89,77.0,8.63,13.76,47.59359,-54.27349
2022-05-24 19:44:01+00:00,70.0,6.88,68.0,10.19,13.76,47.59359,-54.27349
2022-05-24 19:54:01+00:00,72.0,5.4,69.0,7.69,13.76,47.59359,-54.27349
2022-05-24 20:04:01+00:00,72.0,5.69,69.0,7.82,13.76,47.59359,-54.27349
2022-05-24 20:14:00+00:00,70.0,5.59,70.0,7.57,13.84,47.59359,-54.27349
2022-05-24 20:24:00+00:00,71.0,6.44,86.0,9.71,13.84,47.59359,-54.27349
2022-05-24 20:34:00+00:00,74.0,6.61,63.0,8.1,13.84,47.59359,-54.27349
2022-05-24 20:44:00+00:00,71.0,7.72,73.0,8.72,13.84,47.59359,-54.27349
2022-05-24 20:54:00+00:00,72.0,7.29,75.0,9.53,13.84,47.59359,-54.27349
2022-05-24 21:04:00+00:00,72.0,6.12,64.0,8.81,13.84,47.59359,-54.27349
2022-05-24 21:14:01+00:00,72.0,7.05,62.0,8.69,13.76,47.59359,-54.27349
2022-05-24 21:24:01+00:00,71.0,6.65,62.0,8.49,13.76,47.59359,-54.27349
2022-05-24 21:34:01+00:00,73.0,7.65,78.0,12.94,13.76,47.59359,-54.27349
2022-05-24 21:44:01+00:00,73.0,6.06,77.0,13.4,13.76,47.59359,-54.27349
2022-05-24 21:54:01+00:00,73.0,5.36,74.0,7.65,13.76,47.59359,-54.27349
2022-05-24 22:04:01+00:00,70.0,5.97,75.0,12.29,13.76,47.59359,-54.27349
2022-05-24 22:14:01+00:00,69.0,7.65,67.0,8.61,13.6,47.59359,-54.27349
2022-05-24 22:24:01+00:00,67.0,7.24,77.0,10.56,13.6,47.59359,-54.27349
2022-05-24 22:34:01+00:00,69.0,7.23,68.0,8.21,13.6,47.59359,-54.27349
2022-05-24 22:44:01+00:00,70.0,8.49,75.0,13.27,13.6,47.59359,-54.27349
2022-05-24 22:54:01+00:00,56.0,6.92,57.0,8.53,13.6,47.59359,-54.27349
2022-05-24 23:04:01+00:00,54.0,6.92,58.0,8.47,13.6,47.59359,-54.27349
2022-05-24 23:14:01+00:00,58.0,8.43,63.0,10.63,13.21,47.59359,-54.27349
2022-05-24 23:24:01+00:00,53.0,4.37,67.0,7.36,13.21,47.59359,-54.27349
2022-05-24 23:34:01+00:00,56.0,7.45,57.0,8.88,13.21,47.59359,-54.27349
2022-05-24 23:44:01+00:00,67.0,7.23,65.0,8.07,13.21,47.59359,-54.27349
2022-05-24 23:54:01+00:00,61.0,5.54,76.0,9.44,13.21,47.59359,-54.27349
